Weather History for Ft Lauderdale, FL

Change the Weather History Date:

Saturday, July 13, 2013

  Actual Average Record
Temperature  
Mean Temperature 78 °F 84 °F  
Max Temperature 84 °F 90 °F 99 °F (1980)
Min Temperature 72 °F 78 °F 65 °F (1957)
Degree Days  
Heating Degree Days 0 0  
Month to date heating degree days 0 0  
Since 1 June heating degree days 0 0  
Since 1 July heating degree days 0 0  
Cooling Degree Days 13 19  
Month to date cooling degree days 222 247  
Year to date cooling degree days 2162 2208  
Since 1 June cooling degree days 766 790  
Growing Degree Days 28 (Base 50)    
Moisture  
Dew Point 72 °F    
Average Humidity 85    
Maximum Humidity 100    
Minimum Humidity 70    
Precipitation  
Precipitation 5.68 in 0.20 in 5.68 in (2013)
Month to date precipitation 8.68 2.80  
Year to date precipitation 48.19 30.45  
Snow  
Snow 0.00 in - - ()
Month to date snowfall 0.0  
Since 1 June snowfall 0.0  
Since 1 July snowfall 0.0  
Snow Depth 0.00 in    
Sea Level Pressure  
Sea Level Pressure 29.98 in    
Wind  
Wind Speed 6 mph (West)    
Max Wind Speed 23 mph    
Max Gust Speed 30 mph    
Visibility 6 miles    
Events Fog , Rain , Thunderstorm    
T = Trace of Precipitation, MM = Missing Value Source: NWS Daily Summary

Daily Weather History Graph

Daily Weather History Graph

Search for Another Location

Airport:

Trip Planner

Search our weather history database for the weather conditions in past years. The results will help you decide how hot, cold, wet, or windy it might be!

Date:

Astronomy

Jul. 13, 2013 Rise Set
Actual Time 6:37 AM EDT 8:15 PM EDT
Civil Twilight 6:11 AM EDT 8:41 PM EDT
Nautical Twilight 5:40 AM EDT 9:11 PM EDT
Astronomical Twilight 5:08 AM EDT 9:43 PM EDT
Moon 11:17 AM EDT (7/13) 11:33 PM EDT (7/13)
Length of Visible Light 14h 29m
Length of Day
13h 38m
Waxing Crescent, 25% of the Moon is Illuminated
Jul 13
Waxing Crescent
Jul 15
First Quarter
Jul 22
Full
Jul 29
Last Quarter
Aug 6
New

Hourly Weather History & Observations

Time (EDT) Temp. Heat Index Dew Point Humidity Pressure Visibility Wind Dir Wind Speed Gust Speed Precip Events Conditions
12:53 AM 75.9 °F - 69.1 °F 79% 29.96 in 10.0 mi Calm Calm - 0.00 in   Scattered Clouds
1:53 AM 75.9 °F - 72.0 °F 87% 29.95 in 10.0 mi SSW 6.9 mph - 0.00 in   Mostly Cloudy
2:53 AM 75.9 °F - 73.0 °F 91% 29.94 in 10.0 mi SSW 5.8 mph - 0.01 in   Scattered Clouds
3:53 AM 75.9 °F - 72.0 °F 87% 29.93 in 10.0 mi South 4.6 mph - N/A   Partly Cloudy
4:53 AM 75.9 °F - 73.9 °F 94% 29.93 in 10.0 mi Calm Calm - 0.02 in   Partly Cloudy
5:53 AM 75.9 °F - 73.0 °F 91% 29.93 in 10.0 mi Calm Calm - N/A   Partly Cloudy
6:53 AM 75.9 °F - 73.0 °F 91% 29.95 in 10.0 mi South 3.5 mph - N/A   Scattered Clouds
7:53 AM 75.9 °F - 73.0 °F 91% 29.96 in 10.0 mi South 3.5 mph - N/A   Mostly Cloudy
8:53 AM 78.1 °F - 73.0 °F 84% 29.97 in 10.0 mi SE 3.5 mph - N/A   Scattered Clouds
9:53 AM 82.0 °F 87.9 °F 73.9 °F 76% 29.97 in 10.0 mi SW 10.4 mph - N/A   Scattered Clouds
10:53 AM 84.0 °F 91.2 °F 73.9 °F 72% 29.97 in 10.0 mi SW 8.1 mph - N/A   Scattered Clouds
11:03 AM 84.2 °F 90.9 °F 73.4 °F 70% 29.98 in 10.0 mi WSW 8.1 mph - N/A   Mostly Cloudy
11:30 AM 82.4 °F 89.5 °F 75.2 °F 79% 29.98 in 6.0 mi South 9.2 mph 20.7 mph 0.04 in Rain Rain
11:42 AM 80.6 °F 85.4 °F 73.4 °F 79% 29.99 in 2.5 mi South 10.4 mph 19.6 mph 0.05 in Rain Heavy Rain
11:46 AM 80.6 °F 85.4 °F 73.4 °F 79% 29.99 in 2.5 mi South 19.6 mph 25.3 mph 0.06 in Rain , Thunderstorm Heavy Thunderstorms and Rain
11:53 AM 78.1 °F - 72.0 °F 81% 29.99 in 6.0 mi SE 8.1 mph 25.3 mph 0.09 in Rain , Thunderstorm Light Thunderstorms and Rain
12:21 PM 77.0 °F - 73.4 °F 89% 30.00 in 10.0 mi SE 10.4 mph - 0.00 in   Scattered Clouds
12:46 PM 78.8 °F - 71.6 °F 78% 30.00 in 10.0 mi WNW 12.7 mph 16.1 mph 0.00 in Thunderstorm Thunderstorm
12:53 PM 77.0 °F - 71.1 °F 82% 30.01 in 1.0 mi SW 17.3 mph 23.0 mph 0.09 in Rain , Thunderstorm Heavy Thunderstorms and Rain
12:59 PM 75.2 °F - 71.6 °F 89% 30.00 in 0.2 mi WNW 15.0 mph 26.5 mph 0.40 in Rain , Thunderstorm Heavy Thunderstorms and Rain
1:05 PM 73.4 °F - 71.6 °F 94% 30.00 in 3.0 mi WNW 12.7 mph 21.9 mph 0.57 in Rain , Thunderstorm Thunderstorms and Rain
1:11 PM 73.4 °F - 71.6 °F 94% 30.00 in 3.0 mi West 12.7 mph 21.9 mph 0.61 in Rain , Thunderstorm Thunderstorms and Rain
1:34 PM 75.2 °F - 73.4 °F 94% 29.99 in 8.0 mi West 8.1 mph 29.9 mph 0.98 in Rain Light Rain
1:53 PM 77.0 °F - 73.9 °F 90% 29.99 in 10.0 mi NE 8.1 mph - 1.00 in   Mostly Cloudy
2:09 PM 75.2 °F - 73.4 °F 94% 29.99 in 10.0 mi Calm Calm - N/A Thunderstorm Thunderstorm
2:53 PM 77.0 °F - 73.0 °F 88% 29.98 in 10.0 mi NE 5.8 mph - N/A   Mostly Cloudy
3:47 PM 77.0 °F - 71.6 °F 83% 29.99 in 3.0 mi West 9.2 mph 23.0 mph 0.16 in Thunderstorm Unknown
3:53 PM 75.9 °F - 72.0 °F 87% 29.98 in 0.8 mi West 3.5 mph 23.0 mph 0.45 in Rain , Thunderstorm Heavy Thunderstorms and Rain
3:57 PM 75.2 °F - 73.4 °F 94% 29.98 in 4.0 mi Variable 4.6 mph 21.9 mph 0.13 in Rain , Thunderstorm Heavy Thunderstorms and Rain
4:01 PM 75.2 °F - 73.4 °F 94% 29.99 in 6.0 mi West 5.8 mph - 0.13 in Rain , Thunderstorm Light Thunderstorms and Rain
4:17 PM 75.2 °F - 73.4 °F 94% 29.99 in 10.0 mi North 8.1 mph - 0.13 in Rain , Thunderstorm Light Thunderstorms and Rain
4:53 PM 73.9 °F - 72.0 °F 93% 29.98 in 10.0 mi North 11.5 mph - 0.13 in   Mostly Cloudy
5:01 PM 73.4 °F - 73.4 °F 100% 29.99 in 10.0 mi NW 6.9 mph - N/A   Overcast
5:30 PM 73.4 °F - 71.6 °F 94% 29.97 in 10.0 mi West 15.0 mph 20.7 mph 0.01 in Thunderstorm Thunderstorm
5:34 PM 73.4 °F - 71.6 °F 94% 29.97 in 1.8 mi West 21.9 mph 27.6 mph 0.12 in Rain , Thunderstorm Thunderstorms and Rain
5:36 PM 73.4 °F - 71.6 °F 94% 29.97 in 0.5 mi WNW 20.7 mph 27.6 mph 0.25 in Fog , Rain , Thunderstorm Heavy Thunderstorms and Rain
5:39 PM 73.4 °F - 71.6 °F 94% 29.97 in 0.2 mi WNW 17.3 mph 27.6 mph 0.49 in Fog , Rain , Thunderstorm Heavy Thunderstorms and Rain
5:42 PM 73.4 °F - 71.6 °F 94% 29.98 in 0.2 mi West 11.5 mph 27.6 mph 0.79 in Fog , Rain , Thunderstorm Heavy Thunderstorms and Rain
5:53 PM 73.0 °F - 72.0 °F 96% 29.98 in 0.2 mi NW 12.7 mph - 1.68 in Fog , Rain , Thunderstorm Heavy Thunderstorms and Rain
5:58 PM 73.4 °F - 71.6 °F 94% 29.98 in 0.2 mi NNW 12.7 mph 19.6 mph 0.16 in Fog , Rain , Thunderstorm Heavy Thunderstorms and Rain
6:00 PM 73.4 °F - 71.6 °F 94% 29.98 in 1.0 mi NNW 15.0 mph - 0.19 in Rain , Thunderstorm Heavy Thunderstorms and Rain
6:04 PM 73.4 °F - 71.6 °F 94% 29.98 in 1.0 mi NW 12.7 mph 19.6 mph 0.39 in Rain , Thunderstorm Heavy Thunderstorms and Rain
6:15 PM 73.4 °F - 71.6 °F 94% 29.97 in 1.5 mi North 9.2 mph - 0.67 in Rain , Thunderstorm Heavy Thunderstorms and Rain
6:17 PM 73.4 °F - 71.6 °F 94% 29.97 in 2.0 mi North 10.4 mph - 0.70 in Rain , Thunderstorm Heavy Thunderstorms and Rain
6:28 PM 73.4 °F - 71.6 °F 94% 29.98 in 4.0 mi North 9.2 mph - 0.72 in Rain , Thunderstorm Thunderstorms and Rain
6:33 PM 73.4 °F - 71.6 °F 94% 29.99 in 1.0 mi NNW 4.6 mph - 0.80 in Rain , Thunderstorm Thunderstorms and Rain
6:39 PM 73.4 °F - 71.6 °F 94% 29.98 in 1.0 mi SW 8.1 mph - 0.97 in Rain , Thunderstorm Thunderstorms and Rain
6:43 PM 73.4 °F - 71.6 °F 94% 29.99 in 0.8 mi NW 10.4 mph - 1.20 in Rain , Thunderstorm Heavy Thunderstorms and Rain
6:47 PM 73.4 °F - 71.6 °F 94% 30.00 in 1.0 mi WNW 10.4 mph - 1.34 in Rain , Thunderstorm Thunderstorms and Rain
6:48 PM 73.0 °F - 71.1 °F 93% 30.00 in 1.0 mi WNW 8.1 mph - 1.41 in Rain , Thunderstorm Thunderstorms and Rain
6:51 PM 73.4 °F - 71.6 °F 94% 30.00 in 0.8 mi NW 6.9 mph - 0.13 in Rain , Thunderstorm Thunderstorms and Rain
6:57 PM 71.6 °F - 71.6 °F 100% 30.01 in 0.5 mi WSW 3.5 mph - 0.36 in Fog , Rain Heavy Rain
7:02 PM 71.6 °F - 71.6 °F 100% 29.99 in 1.0 mi ENE 4.6 mph - 0.50 in Rain Heavy Rain
7:08 PM 73.4 °F - 71.6 °F 94% 29.99 in 4.0 mi North 4.6 mph - 0.55 in Rain Rain
7:15 PM 73.4 °F - 71.6 °F 94% 30.00 in 5.0 mi West 8.1 mph - 0.55 in Rain Light Rain
7:27 PM 71.6 °F - 71.6 °F 100% 30.00 in 7.0 mi West 4.6 mph - 0.56 in Rain Light Rain
7:53 PM 72.0 °F - 71.1 °F 97% 30.01 in 8.0 mi WSW 6.9 mph - 0.57 in Rain Light Rain
7:57 PM 71.6 °F - 71.6 °F 100% 30.02 in 8.0 mi SW 4.6 mph - 0.01 in Rain Light Rain
8:53 PM 72.0 °F - 71.1 °F 97% 30.03 in 5.0 mi SSE 4.6 mph - 0.17 in Rain Rain
9:53 PM 73.0 °F - 71.1 °F 93% 30.02 in 10.0 mi South 5.8 mph - 0.06 in   Scattered Clouds
10:53 PM 73.0 °F - 71.1 °F 93% 30.03 in 10.0 mi SE 3.5 mph - 0.00 in   Scattered Clouds
11:53 PM 73.9 °F - 72.0 °F 93% 30.01 in 10.0 mi East 3.5 mph - N/A   Scattered Clouds